Location: Bergnershof
(48.9468°N, 10.9431°E)
Time: 16:03:17
(UTC+00:00)

Cosmos 2333 Rocket - Pass Details

Date: 28 June 2021
Orbit: 841 x 861 km, 70.8° (Epoch: 28 July)

Event Time Altitude Azimuth Distance (km) Brightness Sun altitude
Rises 22:10:51 0° 282° (WNW) 3,427 5.8 -16.2°
Reaches altitude 10° 22:15:16 10° 314° (NW) 2,489 5.6 -16.4°
Maximum altitude 22:17:15 12° 335° (NNW) 2,365 5.8 -16.5°
Drops below altitude 10° 22:19:14 10° 355° (N) 2,486 5.9 -16.6°
Sets 22:23:39 0° 27° (NNE) 3,420 6.2 -16.7°
